sat.trackr.live / text

‹ back to catalog

STARLINK-36936

NORAD 68012 · 2026-039AC

PAYLOAD ACTIVE UNKNOWN

§ Identity

Operator
Country
US
Launch date
2026-02-27
Launch site
AFETR
Launch vehicle
Mass (kg)
RCS (m²)

Purposes: comms

External: N2YO · Heavens-Above · Gunter

§ Orbital elements

Epoch: 2026-05-24T20:11:42.957888Z

Period
94.27 min
Inclination
43.0017°
Eccentricity
0.0001512
Mean motion
15.27592133 rev/d
Perigee alt
482.0 km
Apogee alt
484.1 km
Semi-major
6,861.1 km
B*
5.8828e-4
RAAN
338.5289°
Arg perigee
274.2050°
Mean anomaly
85.8629°
Rev number
1,335

§ Raw data

STARLINK-369361 68012U 26039AC  26144.84146942  .00015967  00000+0  58828-3 0  99932 68012  43.0017 338.5289 0001512 274.2050  85.8629 15.27592133 13359

JSON: /api/v1/satellites/68012 · /tle

For live sub-satellite position, see the globe view (requires WebGL).

§ Visibility from observer

Set your observer location to see the next 7 days of passes ≥ 10°. The values pass through the URL so the page stays shareable.

No JS? Fill the form by hand. The geolocation button needs JavaScript.